Location: Gu�tanj
(46.5431°N, 14.9692°E)
Time: 14:58:40
(UTC+00:00)

ERS-2 - Pass Details

Date: 03 March 2021
Orbit: 492 x 496 km, 98.6° (Epoch: 19 April)

Event Time Altitude Azimuth Distance (km) Brightness Sun altitude
Rises 18:21:26 0° 8° (N) 2,595 5.8 -16.6°
Reaches altitude 10° 18:23:35 10° 2° (N) 1,708 4.9 -17.0°
Maximum altitude 18:27:05 44° 290° (WNW) 695 3.3 -17.6°
Drops below altitude 10° 18:30:34 10° 217° (SW) 1,696 5.1 -18.2°
Sets 18:32:41 0° 211° (SSW) 2,574 6.0 -18.6°
